Regional Weather Roundup
Issued by NWS Portland, ME

Home | Current Version | Previous Version | Text Only | Print | Product List | Glossary On
Versions: 1 2 3 4 5 6 7 8 9 10 11 12 13 14 15 16 17 18 19 20 21 22 23 24 25 26 27 28 29 30 31 32 33 34 35 36 37 38 39 40 41 42 43 44 45 46 47 48 49 50
000
ASUS41 KGYX 231610
RWRGYX
WEATHER ROUNDUP FOR MAINE AND NEW HAMPSHIRE
NATIONAL WEATHER SERVICE GRAY ME
1200 PM EDT SAT JUL 23 2016

MEZ002-005-006-010-012-015-018-020-021-024-026-027-029-231700-
MAINE

CITY           SKY/WX    TMP DP  RH WIND       PRES   REMARKS
PORTLAND       MOSUNNY   81  64  56 N6        29.75R
SANFORD          N/A     84  66  54 CALM      29.75S
BAR HARBOR     PTSUNNY   79  69  71 S14       29.71
WISCASSET      MOSUNNY   84  64  50 VRB7      29.74S
ROCKLAND       PTSUNNY   81  69  67 VRB3      29.72S
FRYEBURG       CLOUDY    80  64  58 VRB5      29.76S
LEWISTONAUBURN CLOUDY    78  64  61 NW8       29.76R
AUGUSTA        MOSUNNY   81  62  52 N13       29.74S
WATERVILLE     MOSUNNY   81  64  56 VRB6      29.71S
BANGOR         CLOUDY    84  65  52 VRB6      29.71S
GREENVILLE       N/A     73  59  61 VRB6      29.75R
MILLINOCKET    CLOUDY    78  63  59 W8        29.71S
HOULTON        PTSUNNY   81  65  58 NW5       29.66F
PRESQUE ISLE   PTSUNNY   77  64  64 N7        29.68
FRENCHVILLE    PTSUNNY   76  62  62 NW10      29.68R
CARIBOU        MOSUNNY   80  65  59 N6        29.66F
$$

NHZ002-005-008-009-011-012-014-231700-
NEW HAMPSHIRE

CITY           SKY/WX    TMP DP  RH WIND       PRES   REMARKS
PORTSMOUTH     MOSUNNY   88  62  42 NW10      29.73S
ROCHESTER      SUNNY     86  62  44 VRB6      29.75S
NASHUA         MOSUNNY   89  62  40 W8        29.75S
MANCHESTER     MOSUNNY   89  59  36 NW6       29.74R
CONCORD        SUNNY     89  61  38 NW6G17    29.76S
LACONIA        SUNNY     82  64  54 VRB5      29.78S
PLYMOUTH       FAIR      81  62  52 W8        29.78R
BERLIN         MOSUNNY   79  62  56 VRB5      29.79S
WHITEFIELD     MOSUNNY   78  64  61 SW8       29.80S
JAFFREY        SUNNY     87  56  34 VRB7      29.81S
KEENE          SUNNY     88  60  38 W10       29.79S
LEBANON        MOSUNNY   85  64  49 MISG      29.77F
MT WASHINGTON  FOG       52  52 100 W31G40      N/A  VSB 0
$$

VTZ005-007-008-231700-
VERMONT

CITY           SKY/WX    TMP DP  RH WIND       PRES   REMARKS
ST JOHNSBURY     N/A     79  64  60 MISG      29.77S
MONTPELIER     FAIR      77  65  66 CALM      29.85R
BURLINGTON     FAIR      83  62  49 W8        29.78S
$$

MAZ007-012-024-CTZ003-RIZ002-NYZ038-NYZ072-231700-
SOUTHERN NEW ENGLAND AND NY

CITY           SKY/WX    TMP DP  RH WIND       PRES   REMARKS
BOSTON         SUNNY     93  57  29 W15       29.73S HX  91
WORCESTER      SUNNY     84  61  45 W16       29.82S
NANTUCKET      SUNNY     79  70  74 W15       29.79R
PROVIDENCE     MOSUNNY   88  64  44 NW13G22   29.78S
HARTFORD       MOSUNNY   89  62  40 SW6G20    29.79F
ALBANY         MOSUNNY   88  59  37 NW15      29.82S
NEW YORK CITY  MOSUNNY   92  59  33 W16G22    29.84S HX  91
$$

ANZ081-ANZ082-ANZ150-NHZ014-MEZ023>029-231700-
COASTAL MARINE OBSERVATIONS

STATION/POSITION TIME  TEMP    WIND        PRES    WAVE
                       AIR SEA DIR/SP/G            HT/PER
                 (UTC) (F)     (DEG/KT/KT) (MB)    (FT/S)
MOUNT DESERT ROC 1600   61     240/ 14/ 14 1006.8R
MATINICUS ROCK   1500   66     260/ 13/ 13 1006.5S
ISLE OF SHOALS   1500   76      CALM  /  2 1006.8F
JEFFREYS LEDGE   1508      69                N/A     2/ 4
CASHES LEDGE BUO 1550   71 70  240/  6/  8 1007.0F   3/ 6
GEORGES BANK BUO 1550   68 62              1008.7F   7/ 7
$$

.............KEY..............
   WCI - WIND CHILL
   TC  - TEMPERATURE IN CELSIUS
   VSB - VISIBILITY IN MILES
   HX  - HEAT INDEX
   FAIR- INDICATES FEW OR NO CLOUDS BELOW 12,000 FT, WITH NO
         SIGNIFICANT WEATHER AND/OR OBSTRUCTIONS TO VISIBILITY.






USA.gov is the U.S. government's official web portal to all federal, state and local government web resources and services.